This demonstration page uses our WeatherBlox Daily Observations layout. Learn more.

Left ArrowRight Arrow

Hourly Observations for May 29, 2015

Temp ( °F °C ) Dew Point ( °F °C ) Humidity (%) Winds ( mph kmh ) Pressure ( in mb ) Visibility ( mi km ) Precip ( " mm )
12:15 am 00:15 Clear 72 22 68 20 88 88 N N/A 30.24 1024 10 16 N/A
12:35 am 00:35 Clear 72 22 68 20 88 88 NNW 3 6 30.24 1024 10 16 N/A
12:55 am 00:55 Clear 70 21 68 20 94 94 N N/A 30.24 1024 10 16 N/A
1:15 am 01:15 Clear 72 22 68 20 88 88 N N/A 30.24 1024 10 16 N/A
1:35 am 01:35 Mostly Cloudy 70 21 68 20 94 94 N 3 6 30.24 1024 10 16 N/A
1:55 am 01:55 Cloudy 72 22 66 19 83 83 N 6 9 30.24 1024 10 16 N/A
2:15 am 02:15 Cloudy 72 22 66 19 83 83 NNE 5 7 30.24 1024 10 16 N/A
2:35 am 02:35 Mostly Cloudy 72 22 66 19 83 83 NNE 5 7 30.21 1023 10 16 N/A
2:55 am 02:55 Mostly Cloudy 72 22 66 19 83 83 NNE 6 9 30.21 1023 10 16 N/A
3:15 am 03:15 Mostly Cloudy 72 22 64 18 78 78 NNE 6 9 30.21 1023 10 16 N/A
3:35 am 03:35 Partly Cloudy 70 21 64 18 83 83 NNE 5 7 30.21 1023 10 16 N/A
3:55 am 03:55 Clear 70 21 64 18 83 83 N 6 9 30.21 1023 10 16 N/A
4:15 am 04:15 Clear 70 21 64 18 83 83 N 8 13 30.21 1023 10 16 N/A
4:35 am 04:35 Clear 70 21 64 18 83 83 NNE 6 9 30.24 1024 10 16 N/A
4:55 am 04:55 Partly Cloudy 68 20 64 18 88 88 N 7 11 30.24 1024 10 16 N/A
5:15 am 05:15 Partly Cloudy 68 20 64 18 88 88 N 6 9 30.24 1024 10 16 N/A
5:35 am 05:35 Partly Cloudy 68 20 63 17 83 83 NNE 6 9 30.24 1024 10 16 N/A
5:55 am 05:55 Mostly Cloudy 68 20 63 17 83 83 N 6 9 30.24 1024 10 16 N/A
6:15 am 06:15 Partly Cloudy 68 20 63 17 83 83 N 6 9 30.27 1025 10 16 N/A
6:35 am 06:35 Sunny 68 20 63 17 83 83 NNE 7 11 30.27 1025 10 16 N/A
6:55 am 06:55 Sunny 68 20 61 16 78 78 N 7 11 30.27 1025 10 16 N/A
7:15 am 07:15 Sunny 70 21 61 16 73 73 NNE 7 11 30.27 1025 10 16 N/A
7:35 am 07:35 Sunny 70 21 61 16 73 73 NNE 7 11 30.27 1025 10 16 N/A
7:55 am 07:55 Sunny 72 22 61 16 69 69 NNE 8 13 30.27 1025 10 16 N/A
8:15 am 08:15 Sunny 72 22 61 16 69 69 NNE 6 9 30.30 1026 10 16 N/A
8:35 am 08:35 Sunny 73 23 61 16 65 65 NNE 6 9 30.30 1026 10 16 N/A
8:55 am 08:55 Sunny 73 23 61 16 65 65 E 5 7 30.30 1026 10 16 N/A
9:15 am 09:15 Sunny 75 24 63 17 65 65 E 8 13 30.30 1026 10 16 N/A
9:35 am 09:35 Sunny 75 24 63 17 65 65 NE 7 11 30.30 1026 10 16 N/A
9:55 am 09:55 Mostly Cloudy 77 25 63 17 61 61 E 6 9 30.30 1026 10 16 N/A
10:15 am 10:15 Cloudy 75 24 64 18 69 69 E 5 7 30.27 1025 10 16 N/A
10:35 am 10:35 Mostly Cloudy 77 25 64 18 65 65 ENE 7 11 30.27 1025 10 16 N/A
10:55 am 10:55 Partly Cloudy 77 25 64 18 65 65 ENE 5 7 30.27 1025 10 16 N/A
11:15 am 11:15 Partly Cloudy 79 26 68 20 70 70 S 8 13 30.27 1025 10 16 N/A
11:35 am 11:35 Partly Cloudy 81 27 68 20 66 66 ENE 6 9 30.27 1025 10 16 N/A
11:55 am 11:55 Partly Cloudy 81 27 68 20 66 66 E 6 9 30.27 1025 10 16 N/A
12:15 pm 12:15 Partly Cloudy 81 27 68 20 66 66 ESE 9 15 30.27 1025 10 16 N/A
12:35 pm 12:35 Mostly Cloudy 82 28 70 21 66 66 SSE 7 11 30.27 1025 10 16 N/A
12:55 pm 12:55 Mostly Cloudy 81 27 70 21 70 70 SE 5 7 30.27 1025 10 16 N/A
1:15 pm 13:15 Cloudy 81 27 70 21 70 70 SSW 9 15 30.27 1025 10 16 N/A
1:35 pm 13:35 Mostly Cloudy 81 27 70 21 70 70 ESE 5 7 30.27 1025 10 16 N/A
1:55 pm 13:55 Partly Cloudy 81 27 70 21 70 70 S 9 15 30.27 1025 10 16 N/A
2:15 pm 14:15 Mostly Cloudy with Nearby Thunderstorms 81 27 70 21 70 70 ESE 3 6 30.24 1024 10 16 N/A
2:35 pm 14:35 Cloudy 82 28 70 21 66 66 SE 6 9 30.24 1024 10 16 N/A
2:55 pm 14:55 Mostly Cloudy 82 28 70 21 66 66 SE 7 11 30.24 1024 10 16 N/A
3:15 pm 15:15 Cloudy 84 29 70 21 62 62 SSE 3 6 30.24 1024 10 16 N/A
3:35 pm 15:35 Mostly Cloudy 88 31 70 21 55 55 S 12 19 30.21 1023 10 16 N/A
3:55 pm 15:55 Mostly Cloudy 86 30 70 21 59 59 S 9 15 30.21 1023 10 16 N/A
4:15 pm 16:15 Mostly Cloudy 88 31 70 21 55 55 SSE 10 17 30.21 1023 10 16 N/A
4:35 pm 16:35 Partly Cloudy 86 30 70 21 59 59 S 9 15 30.21 1023 10 16 N/A
4:55 pm 16:55 Partly Cloudy 86 30 68 20 55 55 SSE 7 11 30.18 1022 10 16 N/A
5:15 pm 17:15 Sunny 86 30 70 21 59 59 SSW 13 20 30.18 1022 10 16 N/A
5:35 pm 17:35 Sunny 88 31 68 20 52 52 S 10 17 30.18 1022 10 16 N/A
5:55 pm 17:55 Mostly Cloudy 86 30 68 20 55 55 S 10 17 30.18 1022 10 16 N/A
6:15 pm 18:15 Mostly Cloudy 86 30 70 21 59 59 S 9 15 30.18 1022 10 16 N/A
6:35 pm 18:35 Mostly Cloudy 86 30 72 22 62 62 SSE 7 11 30.18 1022 10 16 N/A
6:55 pm 18:55 Mostly Cloudy 84 29 70 21 62 62 S 13 20 30.18 1022 10 16 N/A
7:15 pm 19:15 Sunny 82 28 70 21 66 66 SSE 9 15 30.18 1022 10 16 N/A
7:35 pm 19:35 Sunny 82 28 70 21 66 66 S 7 11 30.18 1022 10 16 N/A
7:55 pm 19:55 Sunny 82 28 70 21 66 66 SSE 8 13 30.18 1022 10 16 N/A
8:15 pm 20:15 Sunny 81 27 72 22 74 74 SSE 7 11 30.18 1022 10 16 N/A
8:35 pm 20:35 Partly Cloudy 81 27 68 20 66 66 SSE 14 22 30.21 1023 10 16 N/A
8:55 pm 20:55 Clear 79 26 64 18 61 61 S 10 17 30.21 1023 10 16 N/A
9:15 pm 21:15 Clear 77 25 64 18 65 65 S 14 22 30.21 1023 10 16 N/A
9:35 pm 21:35 Clear 75 24 66 19 74 74 S 10 17 30.21 1023 10 16 N/A
9:55 pm 21:55 Clear 73 23 68 20 83 83 S 10 17 30.21 1023 10 16 N/A
10:15 pm 22:15 Clear 73 23 68 20 83 83 S 6 9 30.21 1023 10 16 N/A
10:35 pm 22:35 Mostly Cloudy 72 22 68 20 88 88 SSW 5 7 30.21 1023 10 16 N/A
10:55 pm 22:55 Mostly Cloudy 72 22 68 20 88 88 S 5 7 30.21 1023 10 16 N/A
11:15 pm 23:15 Partly Cloudy 72 22 68 20 88 88 S 5 7 30.21 1023 10 16 N/A
11:35 pm 23:35 Clear 72 22 68 20 88 88 S 5 7 30.21 1023 10 16 N/A
11:55 pm 23:55 Partly Cloudy 72 22 68 20 88 88 S 6 9 30.21 1023 10 16 N/A

Powered by AerisWeather